,,,PA_Meas_PMT16A,,PR_Meas_QMR101_102,,RH_Meas_QMH101,,SR_Meas_QMS101,,TA_Meas_QMH101,,GenWind,,GenWind,
date,time,status,PA,status,PR,status,RH,status,SR,status,TA,status,DirAvg,status,SpdAvg,
2009-08-12, 00:00:04,VALID,1009.33,VALID,0,VALID,97.9604,VALID,0.105969,VALID,24.5125,VALID,177,VALID,0,
2009-08-12, 00:01:04,VALID,1009.32,VALID,0,VALID,97.9757,VALID,0,VALID,24.5125,VALID,177,VALID,0,
2009-08-12, 00:02:04,VALID,1009.32,VALID,0,VALID,97.9833,VALID,0.105969,VALID,24.4911,VALID,177,VALID,0,
2009-08-12, 00:03:04,VALID,1009.33,VALID,0,VALID,98.0062,VALID,0,VALID,24.5125,VALID,124,VALID,0,
2009-08-12, 00:04:04,VALID,1009.35,VALID,0,VALID,97.9986,VALID,0.105969,VALID,24.5125,VALID,124,VALID,0,
2009-08-12, 00:05:04,VALID,1009.36,VALID,0,VALID,98.0138,VALID,0,VALID,24.5125,VALID,124,VALID,0,
2009-08-12, 00:06:04,VALID,1009.35,VALID,0,VALID,97.9909,VALID,0,VALID,24.5125,VALID,124,VALID,0,
2009-08-12, 00:07:04,VALID,1009.33,VALID,0,VALID,98.0214,VALID,0,VALID,24.5125,VALID,124,VALID,0,
2009-08-12, 00:08:04,VALID,1009.36,VALID,0,VALID,98.0062,VALID,0,VALID,24.532,VALID,124,VALID,0,
2009-08-12, 00:09:04,VALID,1009.32,VALID,0,VALID,98.0367,VALID,0,VALID,24.5125,VALID,124,VALID,0,
2009-08-12, 00:10:04,VALID,1009.34,VALID,0,VALID,98.0672,VALID,0,VALID,24.5125,VALID,124,VALID,0,
2009-08-12, 00:11:04,VALID,1009.33,VALID,0,VALID,98.0443,VALID,0,VALID,24.493,VALID,124,VALID,0,
2009-08-12, 00:12:04,VALID,1009.33,VALID,0,VALID,98.0367,VALID,0.105969,VALID,24.5125,VALID,124,VALID,0,
2009-08-12, 00:13:04,VALID,1009.34,VALID,0,VALID,98.0519,VALID,0,VALID,24.4717,VALID,124,VALID,0,
2009-08-12, 00:14:04,VALID,1009.32,VALID,0,VALID,98.0519,VALID,0,VALID,24.4735,VALID,124,VALID,0,
2009-08-12, 00:15:04,VALID,1009.32,VALID,0,VALID,98.0519,VALID,0,VALID,24.4735,VALID,124,VALID,0,
2009-08-12, 00:16:04,VALID,1009.31,VALID,0,VALID,98.0672,VALID,0,VALID,24.4735,VALID,124,VALID,0,
2009-08-12, 00:17:04,VALID,1009.28,VALID,0,VALID,98.0443,VALID,0,VALID,24.454,VALID,124,VALID,0,
2009-08-12, 00:18:04,VALID,1009.23,VALID,0,VALID,98.0596,VALID,0,VALID,24.454,VALID,124,VALID,0,
2009-08-12, 00:19:04,VALID,1009.19,VALID,0,VALID,98.0519,VALID,0,VALID,24.4327,VALID,124,VALID,0,
2009-08-12, 00:20:04,VALID,1009.18,VALID,0,VALID,98.0748,VALID,0,VALID,24.4735,VALID,124,VALID,0,
2009-08-12, 00:21:04,VALID,1009.16,VALID,0,VALID,98.0824,VALID,0,VALID,24.4522,VALID,124,VALID,0,
2009-08-12, 00:22:04,VALID,1009.14,VALID,0,VALID,98.0824,VALID,0,VALID,24.493,VALID,124,VALID,0,
2009-08-12, 00:23:04,VALID,1009.14,VALID,0,VALID,98.0901,VALID,0.105969,VALID,24.493,VALID,124,VALID,0,
2009-08-12, 00:24:04,VALID,1009.17,VALID,0,VALID,98.0977,VALID,0,VALID,24.4717,VALID,124,VALID,0,
2009-08-12, 00:25:04,VALID,1009.2,VALID,0,VALID,98.1206,VALID,0,VALID,24.493,VALID,124,VALID,0,
2009-08-12, 00:26:04,VALID,1009.19,VALID,0,VALID,98.0901,VALID,0,VALID,24.4717,VALID,126,VALID,0,
2009-08-12, 00:27:04,VALID,1009.2,VALID,0,VALID,98.0901,VALID,0,VALID,24.4735,VALID,126,VALID,0,
2009-08-12, 00:28:04,VALID,1009.23,VALID,0,VALID,98.1129,VALID,0,VALID,24.454,VALID,126,VALID,0,
2009-08-12, 00:29:04,VALID,1009.22,VALID,0,VALID,98.0901,VALID,0,VALID,24.454,VALID,126,VALID,0,
2009-08-12, 00:30:04,VALID,1009.2,VALID,0,VALID,98.0824,VALID,0,VALID,24.454,VALID,126,VALID,0,
2009-08-12, 00:31:04,VALID,1009.2,VALID,0,VALID,98.0977,VALID,0,VALID,24.454,VALID,126,VALID,0,
2009-08-12, 00:32:04,VALID,1009.2,VALID,0,VALID,98.0824,VALID,0,VALID,24.454,VALID,126,VALID,0,
2009-08-12, 00:33:04,VALID,1009.21,VALID,0,VALID,98.0748,VALID,0,VALID,24.4345,VALID,126,VALID,0,
2009-08-12, 00:34:04,VALID,1009.21,VALID,0,VALID,98.0901,VALID,0,VALID,24.415,VALID,126,VALID,0,
2009-08-12, 00:35:04,VALID,1009.23,VALID,0,VALID,98.0748,VALID,0,VALID,24.415,VALID,126,VALID,0,
2009-08-12, 00:36:04,VALID,1009.24,VALID,0,VALID,98.0824,VALID,0,VALID,24.3956,VALID,126,VALID,0,
2009-08-12, 00:37:04,VALID,1009.27,VALID,0,VALID,98.0672,VALID,0,VALID,24.3742,VALID,126,VALID,0,
2009-08-12, 00:38:04,VALID,1009.27,VALID,0,VALID,98.0748,VALID,0,VALID,24.3566,VALID,126,VALID,0,
2009-08-12, 00:39:04,VALID,1009.26,VALID,0,VALID,98.0443,VALID,0,VALID,24.3566,VALID,126,VALID,0,
2009-08-12, 00:40:04,VALID,1009.29,VALID,0,VALID,98.0596,VALID,0,VALID,24.3176,VALID,126,VALID,0,
2009-08-12, 00:41:04,VALID,1009.3,VALID,0,VALID,98.0519,VALID,0,VALID,24.2768,VALID,126,VALID,0,
2009-08-12, 00:42:04,VALID,1009.34,VALID,0,VALID,98.0519,VALID,0.105969,VALID,24.3176,VALID,126,VALID,0,
2009-08-12, 00:43:04,VALID,1009.34,VALID,0,VALID,98.0519,VALID,0,VALID,24.2981,VALID,126,VALID,0,
2009-08-12, 00:44:04,VALID,1009.39,VALID,0,VALID,98.0672,VALID,0,VALID,24.2768,VALID,126,VALID,0,
2009-08-12, 00:45:04,VALID,1009.36,VALID,0,VALID,98.0901,VALID,0,VALID,24.2981,VALID,126,VALID,0,
2009-08-12, 00:46:04,VALID,1009.42,VALID,0,VALID,98.0748,VALID,0,VALID,24.2963,VALID,126,VALID,0,
2009-08-12, 00:47:04,VALID,1009.43,VALID,0,VALID,98.1053,VALID,0,VALID,24.3371,VALID,126,VALID,0,
2009-08-12, 00:48:04,VALID,1009.44,VALID,0,VALID,98.1129,VALID,0,VALID,24.2963,VALID,126,VALID,0,
2009-08-12, 00:49:04,VALID,1009.47,VALID,0,VALID,98.0977,VALID,0,VALID,24.2963,VALID,126,VALID,0,
2009-08-12, 00:50:04,VALID,1009.49,VALID,0,VALID,98.1282,VALID,0,VALID,24.3158,VALID,126,VALID,0,
2009-08-12, 00:51:04,VALID,1009.49,VALID,0,VALID,98.1358,VALID,0,VALID,24.3389,VALID,126,VALID,0,
2009-08-12, 00:52:04,VALID,1009.46,VALID,0,VALID,98.1282,VALID,0,VALID,24.3194,VALID,126,VALID,0,
2009-08-12, 00:53:04,VALID,1009.45,VALID,0,VALID,98.1358,VALID,0,VALID,24.2981,VALID,126,VALID,0,
2009-08-12, 00:54:04,VALID,1009.46,VALID,0,VALID,98.1282,VALID,0,VALID,24.2591,VALID,126,VALID,0,
2009-08-12, 00:55:04,VALID,1009.46,VALID,0,VALID,98.1206,VALID,0,VALID,24.261,VALID,126,VALID,0,
2009-08-12, 00:56:04,VALID,1009.44,VALID,0,VALID,98.1053,VALID,0,VALID,24.2202,VALID,126,VALID,0,
2009-08-12, 00:57:04,VALID,1009.46,VALID,0,VALID,98.1129,VALID,0,VALID,24.2202,VALID,126,VALID,0,
2009-08-12, 00:58:04,VALID,1009.47,VALID,0,VALID,98.1206,VALID,0,VALID,24.2007,VALID,126,VALID,0,
2009-08-12, 00:59:04,VALID,1009.51,VALID,0,VALID,98.1511,VALID,0,VALID,24.2415,VALID,126,VALID,0,
2009-08-12, 01:00:04,VALID,1009.54,VALID,0,VALID,98.1358,VALID,0,VALID,24.2415,VALID,126,VALID,0,
2009-08-12, 01:01:04,VALID,1009.58,VALID,0,VALID,98.1434,VALID,0,VALID,24.261,VALID,126,VALID,0,
2009-08-12, 01:02:04,VALID,1009.59,VALID,0,VALID,98.1511,VALID,0,VALID,24.2805,VALID,126,VALID,0,
2009-08-12, 01:03:04,VALID,1009.59,VALID,0,VALID,98.1511,VALID,0,VALID,24.2805,VALID,126,VALID,0,
2009-08-12, 01:04:04,VALID,1009.59,VALID,0,VALID,98.1587,VALID,0,VALID,24.261,VALID,126,VALID,0,
2009-08-12, 01:05:04,VALID,1009.63,VALID,0,VALID,98.174,VALID,0,VALID,24.222,VALID,126,VALID,0,
2009-08-12, 01:06:04,VALID,1009.61,VALID,0,VALID,98.1587,VALID,0.105969,VALID,24.2183,VALID,126,VALID,0,
2009-08-12, 01:07:04,VALID,1009.6,VALID,0,VALID,98.1816,VALID,0.105969,VALID,24.1775,VALID,126,VALID,0,
2009-08-12, 01:08:04,VALID,1009.62,VALID,0,VALID,98.174,VALID,0,VALID,24.1599,VALID,126,VALID,0,
2009-08-12, 01:09:04,VALID,1009.59,VALID,0,VALID,98.1663,VALID,0,VALID,24.1599,VALID,126,VALID,0,
2009-08-12, 01:10:04,VALID,1009.62,VALID,0,VALID,98.1816,VALID,0.105969,VALID,24.1793,VALID,126,VALID,0,
2009-08-12, 01:11:04,VALID,1009.58,VALID,0,VALID,98.1816,VALID,0.105969,VALID,24.1988,VALID,126,VALID,0,
2009-08-12, 01:12:04,VALID,1009.6,VALID,0,VALID,98.1892,VALID,0.105969,VALID,24.1988,VALID,126,VALID,0,
2009-08-12, 01:13:04,VALID,1009.64,VALID,0,VALID,98.1968,VALID,0.105969,VALID,24.1988,VALID,126,VALID,0,
2009-08-12, 01:14:04,VALID,1009.66,VALID,0,VALID,98.2045,VALID,0.105969,VALID,24.1793,VALID,126,VALID,0,
2009-08-12, 01:15:04,VALID,1009.7,VALID,0,VALID,98.1968,VALID,0,VALID,24.1404,VALID,126,VALID,0,
2009-08-12, 01:16:04,VALID,1009.68,VALID,0,VALID,98.2121,VALID,0,VALID,24.1404,VALID,126,VALID,0,
2009-08-12, 01:17:04,VALID,1009.68,VALID,0,VALID,98.174,VALID,0.105969,VALID,24.1599,VALID,126,VALID,0,
2009-08-12, 01:18:04,VALID,1009.66,VALID,0,VALID,98.1968,VALID,0.105969,VALID,24.1812,VALID,126,VALID,0,
2009-08-12, 01:19:04,VALID,1009.64,VALID,0,VALID,98.2045,VALID,0.105969,VALID,24.1599,VALID,126,VALID,0,
2009-08-12, 01:20:04,VALID,1009.6,VALID,0,VALID,98.1892,VALID,0.105969,VALID,24.1404,VALID,126,VALID,0,
2009-08-12, 01:21:04,VALID,1009.59,VALID,0,VALID,98.2121,VALID,0,VALID,24.1599,VALID,126,VALID,0,
2009-08-12, 01:22:04,VALID,1009.57,VALID,0,VALID,98.235,VALID,0.105969,VALID,24.1599,VALID,126,VALID,0,
2009-08-12, 01:23:04,VALID,1009.56,VALID,0,VALID,98.2121,VALID,0.105969,VALID,24.1599,VALID,126,VALID,0,
2009-08-12, 01:24:04,VALID,1009.55,VALID,0,VALID,98.2273,VALID,0.105969,VALID,24.1599,VALID,126,VALID,0,
2009-08-12, 01:25:04,VALID,1009.55,VALID,0,VALID,98.2426,VALID,0.105969,VALID,24.1404,VALID,126,VALID,0,
2009-08-12, 01:26:04,VALID,1009.58,VALID,0,VALID,98.2273,VALID,0.105969,VALID,24.1599,VALID,126,VALID,0,
2009-08-12, 01:27:04,VALID,1009.6,VALID,0,VALID,98.2502,VALID,0.105969,VALID,24.1404,VALID,126,VALID,0,
2009-08-12, 01:28:04,VALID,1009.62,VALID,0,VALID,98.2502,VALID,0.105969,VALID,24.1014,VALID,126,VALID,0,
2009-08-12, 01:29:04,VALID,1009.65,VALID,0,VALID,98.2426,VALID,0.105969,VALID,24.0819,VALID,126,VALID,0.421484,
2009-08-12, 01:30:04,VALID,1009.61,VALID,0,VALID,98.2578,VALID,0.105969,VALID,24.0429,VALID,126,VALID,0.442187,
2009-08-12, 01:31:04,VALID,1009.65,VALID,0,VALID,98.235,VALID,0.105969,VALID,24.0429,VALID,126,VALID,0.46875,
2009-08-12, 01:32:04,VALID,1009.67,VALID,0,VALID,98.2273,VALID,0,VALID,24.0429,VALID,164,VALID,0.744531,
2009-08-12, 01:33:04,VALID,1009.71,VALID,0,VALID,98.2578,VALID,0.105969,VALID,24.0606,VALID,164,VALID,0.592969,
2009-08-12, 01:34:04,VALID,1009.7,VALID,0,VALID,98.2426,VALID,0,VALID,24.0819,VALID,164,VALID,0.417969,
2009-08-12, 01:35:04,VALID,1009.71,VALID,0,VALID,98.2578,VALID,0.105969,VALID,24.1014,VALID,164,VALID,0.430859,
2009-08-12, 01:36:04,VALID,1009.72,VALID,0,VALID,98.2731,VALID,0.105969,VALID,24.1014,VALID,164,VALID,0.205859,
2009-08-12, 01:37:04,VALID,1009.75,VALID,0,VALID,98.2655,VALID,0.105969,VALID,24.0819,VALID,164,VALID,0.239844,
2009-08-12, 01:38:04,VALID,1009.75,VALID,0,VALID,98.2731,VALID,0.105969,VALID,24.0819,VALID,164,VALID,0.344531,
2009-08-12, 01:39:04,VALID,1009.75,VALID,0,VALID,98.2807,VALID,0,VALID,24.1209,VALID,183,VALID,0.575391,
2009-08-12, 01:40:04,VALID,1009.79,VALID,0,VALID,98.2807,VALID,0,VALID,24.1599,VALID,203,VALID,0.527734,
2009-08-12, 01:41:04,VALID,1009.78,VALID,0,VALID,98.2731,VALID,0.105969,VALID,24.1793,VALID,204,VALID,0.196484,
2009-08-12, 01:42:04,VALID,1009.76,VALID,0,VALID,98.2807,VALID,0.105969,VALID,24.2183,VALID,204,VALID,0.302344,
2009-08-12, 01:43:04,VALID,1009.76,VALID,0,VALID,98.2807,VALID,0.105969,VALID,24.2378,VALID,209,VALID,0.489062,
2009-08-12, 01:44:04,VALID,1009.75,VALID,0,VALID,98.2807,VALID,0.105969,VALID,24.2573,VALID,210,VALID,0.465625,
2009-08-12, 01:45:04,VALID,1009.71,VALID,0,VALID,98.3188,VALID,0.105969,VALID,24.2768,VALID,210,VALID,0.261328,
2009-08-12, 01:46:04,VALID,1009.68,VALID,0,VALID,98.296,VALID,0.105969,VALID,24.2768,VALID,210,VALID,0.553125,
2009-08-12, 01:47:04,VALID,1009.68,VALID,0,VALID,98.3036,VALID,0.105969,VALID,24.2768,VALID,210,VALID,0.330078,
2009-08-12, 01:48:04,VALID,1009.67,VALID,0,VALID,98.3112,VALID,0,VALID,24.2963,VALID,210,VALID,0.345313,
2009-08-12, 01:49:04,VALID,1009.65,VALID,0,VALID,98.3188,VALID,0.105969,VALID,24.2768,VALID,210,VALID,0.0863281,
2009-08-12, 01:50:04,VALID,1009.62,VALID,0,VALID,98.3112,VALID,0.105969,VALID,24.2786,VALID,210,VALID,0,
2009-08-12, 01:51:04,VALID,1009.65,VALID,0,VALID,98.3112,VALID,0.105969,VALID,24.2591,VALID,210,VALID,0,
2009-08-12, 01:52:04,VALID,1009.62,VALID,0,VALID,98.3265,VALID,0.105969,VALID,24.1988,VALID,210,VALID,0,
2009-08-12, 01:53:04,VALID,1009.63,VALID,0,VALID,98.3265,VALID,0.105969,VALID,24.1793,VALID,210,VALID,0,
2009-08-12, 01:54:04,VALID,1009.67,VALID,0,VALID,98.3112,VALID,0.105969,VALID,24.1599,VALID,210,VALID,0,
2009-08-12, 01:55:04,VALID,1009.65,VALID,0,VALID,98.296,VALID,0,VALID,24.1404,VALID,210,VALID,0,
2009-08-12, 01:56:04,VALID,1009.7,VALID,0,VALID,98.2883,VALID,0.105969,VALID,24.1404,VALID,210,VALID,0,
2009-08-12, 01:57:04,VALID,1009.73,VALID,0,VALID,98.2807,VALID,0.105969,VALID,24.1599,VALID,210,VALID,0,
2009-08-12, 01:58:04,VALID,1009.72,VALID,0,VALID,98.296,VALID,0.105969,VALID,24.1599,VALID,210,VALID,0,
2009-08-12, 01:59:04,VALID,1009.71,VALID,0,VALID,98.296,VALID,0.105969,VALID,24.1988,VALID,210,VALID,0,
2009-08-12, 02:00:04,VALID,1009.74,VALID,0,VALID,98.296,VALID,0,VALID,24.2183,VALID,210,VALID,0,
2009-08-12, 02:01:04,VALID,1009.71,VALID,0,VALID,98.3112,VALID,0.105969,VALID,24.2378,VALID,210,VALID,0,
2009-08-12, 02:02:04,VALID,1009.72,VALID,0,VALID,98.3188,VALID,0.105969,VALID,24.2378,VALID,210,VALID,0,
2009-08-12, 02:03:04,VALID,1009.72,VALID,0,VALID,98.2883,VALID,0.105969,VALID,24.2378,VALID,206,VALID,0,
2009-08-12, 02:04:04,VALID,1009.72,VALID,0,VALID,98.3112,VALID,0.105969,VALID,24.2378,VALID,187,VALID,0,
2009-08-12, 02:05:04,VALID,1009.74,VALID,0,VALID,98.3265,VALID,0.105969,VALID,24.1599,VALID,178,VALID,0,
2009-08-12, 02:06:04,VALID,1009.73,VALID,0,VALID,98.296,VALID,0,VALID,24.1617,VALID,141,VALID,0,
2009-08-12, 02:07:04,VALID,1009.74,VALID,0,VALID,98.296,VALID,0,VALID,24.2025,VALID,136,VALID,0,
2009-08-12, 02:08:04,VALID,1009.73,VALID,0,VALID,98.296,VALID,0,VALID,24.2007,VALID,136,VALID,0.332812,
2009-08-12, 02:09:04,VALID,1009.73,VALID,0,VALID,98.296,VALID,0,VALID,24.2025,VALID,143,VALID,0.639844,
2009-08-12, 02:10:04,VALID,1009.74,VALID,0,VALID,98.2807,VALID,0,VALID,24.2415,VALID,166,VALID,0.709375,
2009-08-12, 02:11:04,VALID,1009.76,VALID,0,VALID,98.2731,VALID,0,VALID,24.2415,VALID,163,VALID,0.4625,
2009-08-12, 02:12:04,VALID,1009.76,VALID,0,VALID,98.296,VALID,0,VALID,24.2415,VALID,166,VALID,0.419141,
2009-08-12, 02:13:04,VALID,1009.8,VALID,0,VALID,98.3112,VALID,0,VALID,24.2396,VALID,171,VALID,0.540234,
2009-08-12, 02:14:04,VALID,1009.8,VALID,0,VALID,98.2883,VALID,0,VALID,24.2591,VALID,186,VALID,0.757031,
2009-08-12, 02:15:04,VALID,1009.84,VALID,0,VALID,98.296,VALID,0,VALID,24.2591,VALID,186,VALID,0.408594,
2009-08-12, 02:16:04,VALID,1009.81,VALID,0,VALID,98.2883,VALID,0,VALID,24.2591,VALID,185,VALID,0.614844,
2009-08-12, 02:17:04,VALID,1009.84,VALID,0,VALID,98.3036,VALID,0,VALID,24.2396,VALID,181,VALID,0.299219,
2009-08-12, 02:18:04,VALID,1009.83,VALID,0,VALID,98.3036,VALID,0,VALID,24.261,VALID,181,VALID,0.340234,
2009-08-12, 02:19:04,VALID,1009.84,VALID,0,VALID,98.296,VALID,0,VALID,24.2396,VALID,176,VALID,0.485156,
2009-08-12, 02:20:04,VALID,1009.82,VALID,0,VALID,98.296,VALID,0,VALID,24.2202,VALID,176,VALID,0.427734,
2009-08-12, 02:21:04,VALID,1009.85,VALID,0,VALID,98.3036,VALID,0,VALID,24.2396,VALID,173,VALID,0.715234,
2009-08-12, 02:22:04,VALID,1009.8,VALID,0,VALID,98.2731,VALID,0,VALID,24.2805,VALID,144,VALID,0.684766,
2009-08-12, 02:23:04,VALID,1009.78,VALID,0,VALID,98.2883,VALID,0,VALID,24.3,VALID,153,VALID,0.892969,
2009-08-12, 02:24:04,VALID,1009.8,VALID,0,VALID,98.2883,VALID,0,VALID,24.2805,VALID,150,VALID,0.366797,
2009-08-12, 02:25:04,VALID,1009.79,VALID,0,VALID,98.2883,VALID,0,VALID,24.3194,VALID,133,VALID,0.63125,
2009-08-12, 02:26:04,VALID,1009.81,VALID,0,VALID,98.2883,VALID,0,VALID,24.2786,VALID,128,VALID,0.425781,
2009-08-12, 02:27:04,VALID,1009.78,VALID,0,VALID,98.2731,VALID,0,VALID,24.2981,VALID,128,VALID,0.379687,
2009-08-12, 02:28:04,VALID,1009.77,VALID,0,VALID,98.2807,VALID,0,VALID,24.3194,VALID,125,VALID,0.494922,
2009-08-12, 02:29:04,VALID,1009.8,VALID,0,VALID,98.2883,VALID,0,VALID,24.2981,VALID,129,VALID,0.633594,
2009-08-12, 02:30:04,VALID,1009.77,VALID,0,VALID,98.3112,VALID,0,VALID,24.2981,VALID,125,VALID,0.736719,
2009-08-12, 02:31:04,VALID,1009.78,VALID,0,VALID,98.2883,VALID,0,VALID,24.2786,VALID,129,VALID,0.950391,
2009-08-12, 02:32:04,VALID,1009.81,VALID,0,VALID,98.296,VALID,0,VALID,24.2786,VALID,128,VALID,0.798047,
2009-08-12, 02:33:04,VALID,1009.79,VALID,0,VALID,98.296,VALID,0,VALID,24.2591,VALID,131,VALID,0.623828,
2009-08-12, 02:34:04,VALID,1009.8,VALID,0,VALID,98.2883,VALID,0,VALID,24.2591,VALID,128,VALID,0.982031,
2009-08-12, 02:35:04,VALID,1009.76,VALID,0,VALID,98.2731,VALID,0,VALID,24.2396,VALID,136,VALID,0.663672,
2009-08-12, 02:36:04,VALID,1009.79,VALID,0,VALID,98.2807,VALID,0.105969,VALID,24.2378,VALID,138,VALID,0.835547,
2009-08-12, 02:37:04,VALID,1009.79,VALID,0,VALID,98.2731,VALID,0,VALID,24.2378,VALID,136,VALID,0.748828,
2009-08-12, 02:38:04,VALID,1009.78,VALID,0,VALID,98.2731,VALID,0,VALID,24.2396,VALID,132,VALID,0.977344,
2009-08-12, 02:39:04,VALID,1009.79,VALID,0,VALID,98.2731,VALID,0,VALID,24.2183,VALID,139,VALID,1.13633,
2009-08-12, 02:40:04,VALID,1009.76,VALID,0,VALID,98.2807,VALID,0.105969,VALID,24.2183,VALID,123,VALID,1.06797,
2009-08-12, 02:41:04,VALID,1009.76,VALID,0,VALID,98.2883,VALID,0.105969,VALID,24.1988,VALID,141,VALID,0.981641,
2009-08-12, 02:42:04,VALID,1009.81,VALID,0,VALID,98.2502,VALID,0,VALID,24.1988,VALID,150,VALID,0.841406,
2009-08-12, 02:43:04,VALID,1009.81,VALID,0,VALID,98.2655,VALID,0.105969,VALID,24.2202,VALID,147,VALID,0.679297,
2009-08-12, 02:44:04,VALID,1009.83,VALID,0,VALID,98.2426,VALID,0,VALID,24.1793,VALID,153,VALID,0.683203,
2009-08-12, 02:45:04,VALID,1009.84,VALID,0,VALID,98.2426,VALID,0.105969,VALID,24.1599,VALID,151,VALID,1.40664,
2009-08-12, 02:46:04,VALID,1009.83,VALID,0,VALID,98.2045,VALID,0.105969,VALID,24.1812,VALID,164,VALID,0.876953,
2009-08-12, 02:47:04,VALID,1009.84,VALID,0,VALID,98.235,VALID,0.105969,VALID,24.1404,VALID,141,VALID,0.66875,
2009-08-12, 02:48:04,VALID,1009.86,VALID,0,VALID,98.2197,VALID,0,VALID,24.1404,VALID,152,VALID,0.692187,
2009-08-12, 02:49:04,VALID,1009.87,VALID,0,VALID,98.235,VALID,0.105969,VALID,24.1209,VALID,153,VALID,0.350391,
2009-08-12, 02:50:04,VALID,1009.86,VALID,0,VALID,98.2121,VALID,0.105969,VALID,24.1404,VALID,139,VALID,0.780859,
2009-08-12, 02:51:04,VALID,1009.9,VALID,0,VALID,98.2045,VALID,0,VALID,24.1422,VALID,164,VALID,0.827734,
2009-08-12, 02:52:04,VALID,1009.9,VALID,0,VALID,98.2045,VALID,0,VALID,24.1422,VALID,163,VALID,0.584375,
2009-08-12, 02:53:04,VALID,1009.9,VALID,0,VALID,98.2121,VALID,0,VALID,24.1422,VALID,150,VALID,0.700391,
2009-08-12, 02:54:04,VALID,1009.91,VALID,0,VALID,98.1892,VALID,0,VALID,24.1422,VALID,139,VALID,0.752344,
2009-08-12, 02:55:04,VALID,1009.91,VALID,0,VALID,98.1968,VALID,0,VALID,24.1422,VALID,154,VALID,0.983984,
2009-08-12, 02:56:04,VALID,1009.89,VALID,0,VALID,98.1968,VALID,0,VALID,24.1635,VALID,155,VALID,0.626953,
2009-08-12, 02:57:04,VALID,1009.91,VALID,0,VALID,98.1968,VALID,0,VALID,24.144,VALID,147,VALID,0.615234,
2009-08-12, 02:58:04,VALID,1009.92,VALID,0,VALID,98.1816,VALID,0,VALID,24.1227,VALID,156,VALID,1.10039,
2009-08-12, 02:59:04,VALID,1009.93,VALID,0,VALID,98.1816,VALID,0,VALID,24.1422,VALID,141,VALID,0.992969,
2009-08-12, 03:00:04,VALID,1009.95,VALID,0,VALID,98.1663,VALID,0,VALID,24.1422,VALID,121,VALID,1.02734,
2009-08-12, 03:01:04,VALID,1009.96,VALID,0,VALID,98.1282,VALID,0,VALID,24.1617,VALID,122,VALID,0.683594,
2009-08-12, 03:02:04,VALID,1009.98,VALID,0,VALID,98.1434,VALID,0,VALID,24.1617,VALID,120,VALID,0.934766,
2009-08-12, 03:03:04,VALID,1009.99,VALID,0,VALID,98.1434,VALID,0,VALID,24.2025,VALID,126,VALID,1.15547,
2009-08-12, 03:04:04,VALID,1009.97,VALID,0,VALID,98.1282,VALID,0,VALID,24.2025,VALID,124,VALID,0.976172,
2009-08-12, 03:05:04,VALID,1009.98,VALID,0,VALID,98.1053,VALID,0,VALID,24.2007,VALID,90,VALID,0.986328,
2009-08-12, 03:06:04,VALID,1009.99,VALID,0,VALID,98.0748,VALID,0.105969,VALID,24.2202,VALID,86,VALID,1.26055,
2009-08-12, 03:07:04,VALID,1010.02,VALID,0,VALID,98.0596,VALID,0.105969,VALID,24.2202,VALID,96,VALID,1.29609,
2009-08-12, 03:08:04,VALID,1010,VALID,0,VALID,98.0291,VALID,0.105969,VALID,24.1988,VALID,97,VALID,1.22031,
2009-08-12, 03:09:04,VALID,1010.06,VALID,0,VALID,97.9833,VALID,0,VALID,24.2396,VALID,113,VALID,1.17617,
2009-08-12, 03:10:04,VALID,1010.06,VALID,0,VALID,97.9376,VALID,0.105969,VALID,24.2378,VALID,101,VALID,1.3207,
2009-08-12, 03:11:04,VALID,1010.09,VALID,0,VALID,97.8918,VALID,0,VALID,24.2591,VALID,109,VALID,0.885547,
2009-08-12, 03:12:04,VALID,1010.11,VALID,0,VALID,97.8537,VALID,0.105969,VALID,24.2378,VALID,103,VALID,0.513672,
2009-08-12, 03:13:04,VALID,1010.12,VALID,0,VALID,97.8308,VALID,0.105969,VALID,24.2573,VALID,119,VALID,0.711719,
2009-08-12, 03:14:04,VALID,1010.08,VALID,0,VALID,97.7927,VALID,0.105969,VALID,24.2378,VALID,119,VALID,1.29922,
2009-08-12, 03:15:04,VALID,1010.09,VALID,0,VALID,97.7698,VALID,0.105969,VALID,24.2378,VALID,105,VALID,1.10312,
2009-08-12, 03:16:04,VALID,1010.06,VALID,0,VALID,97.7164,VALID,0,VALID,24.2591,VALID,94,VALID,0.994922,
2009-08-12, 03:17:04,VALID,1010.05,VALID,0,VALID,97.6859,VALID,0,VALID,24.2378,VALID,89,VALID,0.744922,
2009-08-12, 03:18:04,VALID,1010.04,VALID,0,VALID,97.6478,VALID,0.105969,VALID,24.2591,VALID,68,VALID,1.18516,
2009-08-12, 03:19:04,VALID,1010.04,VALID,0,VALID,97.6401,VALID,0.105969,VALID,24.2378,VALID,69,VALID,0.883203,
2009-08-12, 03:20:04,VALID,1010.04,VALID,0,VALID,97.602,VALID,0,VALID,24.2183,VALID,68,VALID,1.01445,
2009-08-12, 03:21:04,VALID,1010.05,VALID,0,VALID,97.5868,VALID,0,VALID,24.222,VALID,71,VALID,0.603906,
2009-08-12, 03:22:04,VALID,1010.04,VALID,0,VALID,97.5563,VALID,0,VALID,24.222,VALID,92,VALID,1.21523,
2009-08-12, 03:23:04,VALID,1010.08,VALID,0,VALID,97.5258,VALID,0,VALID,24.2025,VALID,81,VALID,1.32539,
2009-08-12, 03:24:04,VALID,1010.09,VALID,0,VALID,97.5258,VALID,0,VALID,24.1812,VALID,91,VALID,0.943359,
2009-08-12, 03:25:04,VALID,1010.09,VALID,0,VALID,97.5258,VALID,0,VALID,24.183,VALID,102,VALID,1.03437,
2009-08-12, 03:26:04,VALID,1010.11,VALID,0,VALID,97.5181,VALID,0,VALID,24.1617,VALID,104,VALID,0.712109,
2009-08-12, 03:27:04,VALID,1010.12,VALID,0,VALID,97.5181,VALID,0,VALID,24.1635,VALID,107,VALID,0.5,
2009-08-12, 03:28:04,VALID,1010.11,VALID,0,VALID,97.5334,VALID,0,VALID,24.144,VALID,100,VALID,0.463281,
2009-08-12, 03:29:04,VALID,1010.11,VALID,0,VALID,97.5334,VALID,0,VALID,24.1635,VALID,100,VALID,0.373437,
2009-08-12, 03:30:04,VALID,1010.11,VALID,0,VALID,97.5105,VALID,0,VALID,24.1227,VALID,100,VALID,0.335547,
2009-08-12, 03:31:04,VALID,1010.12,VALID,0,VALID,97.5258,VALID,0,VALID,24.1245,VALID,105,VALID,0.721094,
2009-08-12, 03:32:04,VALID,1010.09,VALID,0,VALID,97.5258,VALID,0,VALID,24.1245,VALID,110,VALID,0.486328,
2009-08-12, 03:33:04,VALID,1010.07,VALID,0,VALID,97.5486,VALID,0,VALID,24.0837,VALID,96,VALID,0.774219,
2009-08-12, 03:34:04,VALID,1010.09,VALID,0,VALID,97.541,VALID,0,VALID,24.0837,VALID,120,VALID,0.529688,
2009-08-12, 03:35:04,VALID,1010.1,VALID,0,VALID,97.5334,VALID,0,VALID,24.1051,VALID,100,VALID,0.821094,
2009-08-12, 03:36:04,VALID,1010.1,VALID,0,VALID,97.5181,VALID,0,VALID,24.0819,VALID,118,VALID,1.42969,
2009-08-12, 03:37:04,VALID,1010.07,VALID,0,VALID,97.4876,VALID,0.105969,VALID,24.1014,VALID,121,VALID,1.03945,
2009-08-12, 03:38:04,VALID,1010.1,VALID,0,VALID,97.48,VALID,0,VALID,24.0819,VALID,110,VALID,0.918359,
2009-08-12, 03:39:04,VALID,1010.13,VALID,0,VALID,97.4571,VALID,0,VALID,24.1032,VALID,109,VALID,1.01055,
2009-08-12, 03:40:04,VALID,1010.14,VALID,0,VALID,97.4114,VALID,0.105969,VALID,24.0819,VALID,122,VALID,0.721094,
2009-08-12, 03:41:04,VALID,1010.15,VALID,0,VALID,97.4037,VALID,0,VALID,24.1032,VALID,100,VALID,0.891797,
2009-08-12, 03:42:04,VALID,1010.16,VALID,0,VALID,97.3885,VALID,0.105969,VALID,24.0624,VALID,104,VALID,0.85625,
2009-08-12, 03:43:04,VALID,1010.18,VALID,0,VALID,97.3732,VALID,0.105969,VALID,24.0624,VALID,126,VALID,0.738281,
2009-08-12, 03:44:04,VALID,1010.16,VALID,0,VALID,97.3427,VALID,0.105969,VALID,24.0429,VALID,98,VALID,0.769531,
2009-08-12, 03:45:04,VALID,1010.15,VALID,0,VALID,97.3275,VALID,0.105969,VALID,24.0643,VALID,98,VALID,0.557422,
2009-08-12, 03:46:04,VALID,1010.15,VALID,0,VALID,97.3199,VALID,0.105969,VALID,24.0643,VALID,98,VALID,0.252734,